Regional Weather Roundup
Issued by NWS Green Bay, WI

Home | Current Version | Previous Version | Graphics & Text | Print | Product List | Glossary Off
Versions: 1 2 3 4 5 6 7 8 9 10 11 12 13 14 15 16 17 18 19 20 21 22 23 24 25 26 27 28 29 30 31 32 33 34 35 36 37 38 39 40 41 42 43 44 45 46 47 48 49 50

000
ASUS43 KGRB 101400
RWRGRB

NORTH-CENTRAL AND NORTHEAST WISCONSIN REGIONAL WEATHER ROUNDUP
NATIONAL WEATHER SERVICE GREEN BAY WI
800 AM CST WED FEB 10 2016

WIZ005-009-010>012-018-019-101500-
NORTH CENTRAL WISCONSIN

CITY           SKY/WX    TMP DP  RH WIND       PRES   REMARKS
IRONWOOD       CLOUDY     5   0  78 N8        29.99S VSB 1   WCI  -8
MANITOWISH WTR NOT AVBL
ARBOR VITAE    NOT AVBL
EAGLE RIVER    NOT AVBL
LAND O LAKES   NOT AVBL
RHINELANDER    CLOUDY     4  -4  69 N7        29.95R WCI  -8
PHILLIPS       NOT AVBL
ANTIGO         NOT AVBL
TOMAHAWK       NOT AVBL
MERRILL        NOT AVBL
$$

WIZ013-073-101500-
NORTHEAST WISCONSIN

CITY           SKY/WX    TMP DP  RH WIND       PRES   REMARKS
IRON MOUNTAIN  CLOUDY     3  -6  66 NW9       29.95R WCI -12
MARINETTE      CLEAR      5  -6  61 NW10G18   29.97R WCI -10
$$

WIZ017-030-035>037-045-101500-
CENTRAL WISCONSIN

CITY           SKY/WX    TMP DP  RH WIND       PRES   REMARKS
MEDFORD        NOT AVBL
WAUSAU         CLOUDY     7  -2  66 NW9       29.98R WCI  -7
MOSINEE        NOT AVBL
MARSHFIELD     PTCLDY    -2  -9  72 NW10      29.99S WCI -19
WISC RAPIDS    CLOUDY     4  -4  69 NW12      30.03R WCI -12
STEVENS POINT  NOT AVBL
WAUPACA        CLOUDY    11  -3  53 NW12      30.01S WCI  -3
SHAWANO        CLOUDY    10  -4  53 N7        30.01R WCI   0
CLINTONVILLE   NOT AVBL
WAUTOMA        NOT AVBL
$$

WIZ038-039-048-051-101500-
FOX VALLEY

CITY           SKY/WX    TMP DP  RH WIND       PRES   REMARKS
NWS GREEN BAY  CLEAR      4  -5  66 NW6       30.00R WCI  -7
APPLETON       PTCLDY     7  -8  51 NW9       29.97R WCI  -7
OSHKOSH        PTCLDY     8  -5  55 NW12      30.00R WCI  -7
FOND DU LAC    CLOUDY     9  -2  61 N8        30.01R WCI  -3
$$

WIZ022-050-052-101500-
EAST CENTRAL WISCONSIN

CITY           SKY/WX    TMP DP  RH WIND       PRES   REMARKS
EPHRAIM        FAIR       7  -3  62 NW15G22   29.93R WCI -11
STURGEON BAY   CLEAR      7  -6  56 NW14G21   29.97R WCI -10
MANITOWOC      NOT AVBL
SHEBOYGAN      PTCLDY     7  -5  57 NW12      29.98R WCI  -8
$$

LMZ563-521-522-541>543-101500-
LAKESHORE

STATION/POSITION TIME  TEMP    WIND        PRES    VSBY  WAVE
                       AIR SEA DIR/SP/G                  HT/PER
                 (UTC) (F)     (DEG/KT/KT) (MB)    (MI)  (FT/S)
SHEBOYGAN LKSHOR 1300    8     320/ 16/ 19 1016.3R
KEWAUNEE LKSHORE 1300    6     320/  9/ 15 1013.6R
ALGOMA MARINA    1311          340/ 14/ 19   N/A
CHAMBERS ISLAND  1300    7     310/ 15/ 25 1014.2R
MENOMINEE LKSHOR 1300    6     300/ 10     1013.6R
$$



USA.gov is the U.S. government's official web portal to all federal, state and local government web resources and services.